| time (UTC) | temp F | wind direction | speed MPH | gust MPH | rain 1hr in | rain 24hr in | rain mn in | humidity % | barometer mb |
| 20260502213156 | 62 | 94 | 0.0 | 0.0 | 0.00 | 0.00 | 0.00 | 79 | 1020.9 |
| 20260502211650 | 62 | 94 | 0.0 | 0.0 | 0.00 | 0.00 | 0.00 | 79 | 1021.0 |
| 20260502204651 | 62 | 166 | 0.0 | 0.0 | 0.00 | 0.00 | 0.00 | 78 | 1021.0 |
| 20260502203155 | 62 | 157 | 0.0 | 4.0 | 0.00 | 0.00 | 0.00 | 78 | 1021.1 |
| 20260502201651 | 62 | 177 | 0.0 | 3.0 | 0.00 | 0.00 | 0.00 | 78 | 1020.9 |
| 20260502194650 | 62 | 134 | 0.0 | 2.0 | 0.00 | 0.00 | 0.00 | 77 | 1020.6 |
| 20260502193158 | 62 | 134 | 0.0 | 2.0 | 0.00 | 0.00 | 0.00 | 76 | 1020.6 |
| 20260502191649 | 62 | 121 | 0.0 | 4.0 | 0.00 | 0.00 | 0.00 | 75 | 1020.7 |
| 20260502184652 | 63 | 160 | 2.0 | 5.0 | 0.00 | 0.00 | 0.00 | 71 | 1020.6 |
| 20260502183138 | 64 | 136 | 1.0 | 7.0 | 0.00 | 0.00 | 0.00 | 68 | 1020.5 |
| 20260502181651 | 64 | 163 | 2.0 | 8.0 | 0.00 | 0.00 | 0.00 | 65 | 1020.5 |
| 20260502180156 | 64 | 143 | 0.0 | 6.0 | 0.00 | 0.00 | 0.00 | 65 | 1020.4 |
| 20260502163155 | 66 | 110 | 0.0 | 9.0 | 0.00 | 0.00 | 0.00 | 59 | 1021.1 |
| 20260502161651 | 67 | 134 | 0.0 | 8.0 | 0.00 | 0.00 | 0.00 | 60 | 1021.1 |
| 20260502151601 | 69 | 104 | 2.0 | 11.0 | 0.00 | 0.00 | 0.00 | 53 | 1021.5 |
| 20260502150154 | 68 | 120 | 4.0 | 12.0 | 0.00 | 0.00 | 0.00 | 50 | 1021.5 |
| 20260502123158 | 69 | 105 | 2.0 | 7.0 | 0.00 | 0.00 | 0.00 | 55 | 1022.9 |
| 20260502121651 | 69 | 130 | 1.0 | 10.0 | 0.00 | 0.00 | 0.00 | 54 | 1023.2 |
| 20260502120148 | 68 | 127 | 1.0 | 7.0 | 0.00 | 0.00 | 0.00 | 56 | 1023.3 |
| 20260502114654 | 67 | 70 | 0.0 | 3.0 | 0.00 | 0.00 | 0.00 | 62 | 1023.4 |
| 20260502113159 | 66 | 15 | 0.0 | 3.0 | 0.00 | 0.00 | 0.00 | 64 | 1023.6 |
| 20260502111502 | 66 | 15 | 0.0 | 3.0 | 0.00 | 0.00 | 0.00 | 67 | 1023.8 |
| 20260502104651 | 65 | 327 | 0.0 | 4.0 | 0.00 | 0.00 | 0.00 | 69 | 1023.9 |
| 20260502103138 | 65 | 329 | 0.0 | 4.0 | 0.00 | 0.00 | 0.00 | 72 | 1024.1 |
| 20260502101650 | 64 | 344 | 0.0 | 4.0 | 0.00 | 0.00 | 0.00 | 71 | 1024.4 |
| 20260502090149 | 62 | 5 | 4.0 | 6.0 | 0.00 | 0.00 | 0.00 | 79 | 1024.7 |
| 20260502064636 | 60 | 327 | 0.0 | 0.0 | 0.00 | 0.00 | 0.00 | 84 | 1024.7 |
| 20260502063137 | 60 | 327 | 0.0 | 0.0 | 0.00 | 0.00 | 0.00 | 82 | 1024.7 |
| 20260502061650 | 60 | 327 | 0.0 | 0.0 | 0.00 | 0.00 | 0.00 | 83 | 1024.6 |
| 20260502060148 | 59 | 327 | 0.0 | 0.0 | 0.00 | 0.00 | 0.00 | 82 | 1024.6 |
| 20260502054649 | 59 | 327 | 0.0 | 0.0 | 0.00 | 0.00 | 0.00 | 82 | 1024.5 |
| 20260502053138 | 59 | 327 | 0.0 | 0.0 | 0.00 | 0.00 | 0.00 | 82 | 1024.4 |
| 20260502051651 | 59 | 327 | 0.0 | 0.0 | 0.00 | 0.00 | 0.00 | 82 | 1024.4 |
| 20260502044652 | 60 | 327 | 0.0 | 0.0 | 0.00 | 0.00 | 0.00 | 82 | 1024.3 |
| 20260502043158 | 59 | 327 | 0.0 | 0.0 | 0.00 | 0.00 | 0.00 | 82 | 1024.2 |
| 20260502041651 | 60 | 327 | 0.0 | 0.0 | 0.00 | 0.00 | 0.00 | 82 | 1024.2 |
| 20260502040152 | 59 | 327 | 0.0 | 1.0 | 0.00 | 0.00 | 0.00 | 81 | 1024.3 |
| 20260502034651 | 60 | 327 | 0.0 | 2.0 | 0.00 | 0.00 | 0.00 | 81 | 1024.1 |
| 20260502033200 | 60 | 327 | 0.0 | 0.0 | 0.00 | 0.00 | 0.00 | 81 | 1024.3 |
| 20260502031651 | 60 | 355 | 0.0 | 1.0 | 0.00 | 0.00 | 0.00 | 80 | 1024.3 |
| 20260502030159 | 60 | 355 | 0.0 | 1.0 | 0.00 | 0.00 | 0.00 | 79 | 1024.3 |
| 20260502024650 | 60 | 355 | 0.0 | 3.0 | 0.00 | 0.00 | 0.00 | 78 | 1024.4 |
| 20260502023138 | 60 | 355 | 0.0 | 3.0 | 0.00 | 0.00 | 0.00 | 79 | 1024.5 |
| 20260502021651 | 61 | 331 | 0.0 | 5.0 | 0.00 | 0.00 | 0.00 | 79 | 1024.5 |
| 20260502020148 | 61 | 5 | 0.0 | 3.0 | 0.00 | 0.00 | 0.00 | 81 | 1024.6 |
| 20260502014650 | 61 | 286 | 0.0 | 3.0 | 0.00 | 0.00 | 0.00 | 81 | 1024.6 |
| 20260502013138 | 61 | 355 | 0.0 | 3.0 | 0.00 | 0.00 | 0.00 | 80 | 1024.7 |
| 20260502011652 | 61 | 355 | 0.0 | 2.0 | 0.00 | 0.00 | 0.00 | 80 | 1024.7 |
| 20260502010148 | 61 | 355 | 0.0 | 2.0 | 0.00 | 0.00 | 0.00 | 81 | 1024.8 |
| 20260502004651 | 61 | 355 | 0.0 | 3.0 | 0.00 | 0.00 | 0.00 | 81 | 1024.9 |
| 20260502003157 | 61 | 355 | 0.0 | 3.0 | 0.00 | 0.00 | 0.00 | 79 | 1025.2 |
| 20260502001651 | 62 | 144 | 0.0 | 0.0 | 0.00 | 0.00 | 0.00 | 77 | 1025.3 |
| 20260502000149 | 62 | 144 | 0.0 | 1.0 | 0.00 | 0.00 | 0.00 | 77 | 1025.5 |
| 20260501234650 | 62 | 144 | 0.0 | 1.0 | 0.00 | 0.00 | 0.00 | 76 | 1025.6 |
| 20260501233138 | 62 | 144 | 0.0 | 1.0 | 0.00 | 0.00 | 0.00 | 76 | 1025.6 |
| 20260501231652 | 62 | 144 | 0.0 | 4.0 | 0.00 | 0.00 | 0.00 | 78 | 1025.7 |
| 20260501230146 | 62 | 131 | 0.0 | 0.0 | 0.00 | 0.00 | 0.00 | 77 | 1025.6 |
| 20260501224650 | 62 | 160 | 0.0 | 2.0 | 0.00 | 0.00 | 0.00 | 77 | 1025.5 |
| 20260501223155 | 62 | 160 | 0.0 | 4.0 | 0.00 | 0.00 | 0.00 | 77 | 1025.4 |
| 20260501221650 | 62 | 152 | 1.0 | 4.0 | 0.00 | 0.00 | 0.00 | 77 | 1025.3 |
| 20260501214652 | 62 | 186 | 1.0 | 6.0 | 0.00 | 0.00 | 0.00 | 77 | 1025.3 |